When you browse on this site, cookies collect data to enhance your experience and personalize the content and advertising you see.
Visit our Privacy Policy to learn more. By continuing to use the site, you agree to this use of cookies and data.
  • In Hungary
  • List of Countries
  • For 7 days
  • Water Temperature
  • Weather Map
  • News
  • Weather Widgets
  • user-avatar
    Login

    Hourly Weather Palkino

    Today, 18 August, Sunday

    Time Temperature Precipitation Wind Pressure Humidity
    00:00 +13°C° 0.2 mm 3 mps 738 mmHg 93%
    01:00 +13°C° 0.2 mm 3 mps 738 mmHg 95%
    02:00 +13°C° 0 mm 4 mps 738 mmHg 98%
    03:00 +13°C° 1.2 mm 4 mps 738 mmHg 98%
    04:00 +13°C° 1.2 mm 4 mps 737 mmHg 98%
    05:00 +14°C° 1.2 mm 4 mps 737 mmHg 98%
    06:00 +14°C° 0.4 mm 4 mps 737 mmHg 97%
    07:00 +14°C° 0.4 mm 4 mps 737 mmHg 97%
    08:00 +14°C° 0 mm 4 mps 737 mmHg 97%
    09:00 +14°C° 0.6 mm 4 mps 737 mmHg 96%
    10:00 +14°C° 0.6 mm 4 mps 737 mmHg 95%
    11:00 +14°C° 0.6 mm 4 mps 737 mmHg 95%
    12:00 +15°C° 0.2 mm 4 mps 738 mmHg 91%
    13:00 +17°C° 0.2 mm 4 mps 738 mmHg 87%
    14:00 +18°C° 0.2 mm 4 mps 738 mmHg 83%
    15:00 +19°C° 0 mm 3 mps 738 mmHg 84%
    16:00 +19°C° 0 mm 3 mps 739 mmHg 84%
    17:00 +19°C° 0 mm 2 mps 739 mmHg 84%
    18:00 +18°C° 0 mm 2 mps 739 mmHg 86%
    19:00 +17°C° 0 mm 2 mps 739 mmHg 89%
    20:00 +16°C° 0 mm 1 mps 740 mmHg 91%
    21:00 +15°C° 0 mm 2 mps 740 mmHg 92%
    22:00 +15°C° 0 mm 2 mps 740 mmHg 92%
    23:00 +14°C° 0 mm 2 mps 740 mmHg 92%

    Tomorrow, 19 August, Monday

    Time Temperature Precipitation Wind Pressure Humidity
    00:00 +14°C° 0 mm 2 mps 740 mmHg 92%
    01:00 +14°C° 0 mm 2 mps 741 mmHg 92%
    02:00 +13°C° 0 mm 2 mps 741 mmHg 92%
    03:00 +13°C° 0 mm 2 mps 741 mmHg 92%
    04:00 +13°C° 0 mm 2 mps 741 mmHg 92%
    05:00 +12°C° 0 mm 2 mps 741 mmHg 92%
    06:00 +14°C° 0 mm 2 mps 742 mmHg 88%
    07:00 +16°C° 0 mm 2 mps 742 mmHg 84%
    08:00 +18°C° 0 mm 3 mps 742 mmHg 81%
    09:00 +19°C° 0 mm 3 mps 742 mmHg 77%
    10:00 +21°C° 0 mm 3 mps 743 mmHg 74%
    11:00 +23°C° 0 mm 4 mps 743 mmHg 71%
    12:00 +23°C° 0 mm 4 mps 743 mmHg 69%
    13:00 +25°C° 0 mm 4 mps 743 mmHg 67%
    14:00 +25°C° 0 mm 5 mps 743 mmHg 66%
    15:00 +25°C° 0 mm 4 mps 743 mmHg 69%
    16:00 +25°C° 0 mm 4 mps 743 mmHg 72%
    17:00 +25°C° 0 mm 3 mps 743 mmHg 76%
    18:00 +22°C° 0 mm 3 mps 743 mmHg 79%
    19:00 +21°C° 0 mm 3 mps 743 mmHg 83%
    20:00 +19°C° 0 mm 3 mps 743 mmHg 86%
    21:00 +19°C° 0 mm 3 mps 743 mmHg 86%
    22:00 +19°C° 0 mm 3 mps 743 mmHg 86%
    23:00 +18°C° 0 mm 3 mps 743 mmHg 86%

    Day after tomorrow, 20 August, Tuesday

    Time Temperature Precipitation Wind Pressure Humidity
    00:00 +18°C° 0.3 mm 3 mps 744 mmHg 89%
    01:00 +18°C° 0.3 mm 3 mps 744 mmHg 91%
    02:00 +17°C° 0.3 mm 3 mps 744 mmHg 93%
    03:00 +17°C° 0.1 mm 2 mps 744 mmHg 94%
    04:00 +17°C° 0.1 mm 2 mps 745 mmHg 95%
    05:00 +18°C° 0.1 mm 1 mps 745 mmHg 96%
    06:00 +18°C° 0.5 mm 2 mps 745 mmHg 95%
    07:00 +19°C° 0.5 mm 2 mps 745 mmHg 93%
    08:00 +20°C° 0.5 mm 2 mps 746 mmHg 91%
    09:00 +23°C° 0.1 mm 2 mps 746 mmHg 87%
    10:00 +24°C° 0.1 mm 2 mps 746 mmHg 83%
    11:00 +25°C° 0.1 mm 2 mps 746 mmHg 78%
    12:00 +25°C° 0.1 mm 2 mps 746 mmHg 77%
    13:00 +26°C° 0.1 mm 2 mps 746 mmHg 77%
    14:00 +26°C° 0.1 mm 2 mps 747 mmHg 76%
    15:00 +26°C° 0.4 mm 2 mps 747 mmHg 77%
    16:00 +26°C° 0.4 mm 1 mps 747 mmHg 78%
    17:00 +26°C° 0.4 mm 1 mps 746 mmHg 80%
    18:00 +24°C° 0.8 mm 1 mps 747 mmHg 84%
    19:00 +23°C° 0.8 mm 1 mps 747 mmHg 88%
    20:00 +21°C° 0.8 mm 1 mps 747 mmHg 93%
    21:00 +21°C° 0.1 mm 1 mps 747 mmHg 93%
    22:00 +19°C° 0.1 mm 2 mps 747 mmHg 94%
    23:00 +19°C° 0.1 mm 2 mps 747 mmHg 95%

    21 August, Wednesday

    Time Temperature Precipitation Wind Pressure Humidity
    00:00 +20°C° 0.2 mm 1 mps 747 mmHg 95%
    01:00 +19°C° 0.2 mm 1 mps 747 mmHg 95%
    02:00 +19°C° 0.2 mm 1 mps 747 mmHg 96%
    03:00 +19°C° 0.4 mm 1 mps 747 mmHg 96%
    04:00 +19°C° 0.4 mm 1 mps 747 mmHg 97%
    05:00 +19°C° 0.4 mm 1 mps 747 mmHg 97%
    06:00 +20°C° 0.2 mm 1 mps 747 mmHg 95%
    07:00 +20°C° 0.2 mm 2 mps 747 mmHg 93%
    08:00 +21°C° 0.2 mm 2 mps 747 mmHg 92%
    09:00 +23°C° 0.1 mm 2 mps 747 mmHg 87%
    10:00 +24°C° 0.1 mm 3 mps 747 mmHg 83%
    11:00 +25°C° 0.1 mm 3 mps 747 mmHg 78%
    12:00 +26°C° 0.3 mm 3 mps 747 mmHg 76%
    13:00 +27°C° 0.3 mm 4 mps 746 mmHg 73%
    14:00 +27°C° 0.3 mm 4 mps 746 mmHg 70%
    15:00 +27°C° 0.1 mm 4 mps 746 mmHg 72%
    16:00 +27°C° 0.1 mm 3 mps 745 mmHg 75%
    17:00 +27°C° 0.1 mm 3 mps 745 mmHg 78%
    18:00 +25°C° 0 mm 3 mps 745 mmHg 80%
    19:00 +24°C° 0 mm 3 mps 744 mmHg 83%
    20:00 +21°C° 0 mm 3 mps 744 mmHg 86%
    21:00 +21°C° 0 mm 3 mps 744 mmHg 87%
    22:00 +20°C° 0 mm 3 mps 744 mmHg 87%
    23:00 +20°C° 0 mm 3 mps 744 mmHg 87%

    22 August, Thursday

    Time Temperature Precipitation Wind Pressure Humidity
    00:00 +19°C° 0 mm 3 mps 744 mmHg 87%
    01:00 +19°C° 0 mm 3 mps 744 mmHg 87%
    02:00 +19°C° 0 mm 3 mps 744 mmHg 86%
    03:00 +18°C° 0 mm 3 mps 744 mmHg 88%
    04:00 +18°C° 0 mm 2 mps 744 mmHg 89%
    05:00 +18°C° 0 mm 2 mps 744 mmHg 90%
    06:00 +18°C° 0 mm 3 mps 744 mmHg 90%
    07:00 +18°C° 0 mm 4 mps 745 mmHg 90%
    08:00 +17°C° 0 mm 5 mps 745 mmHg 90%
    09:00 +17°C° 0 mm 5 mps 745 mmHg 88%
    10:00 +17°C° 0 mm 5 mps 746 mmHg 85%
    11:00 +17°C° 0 mm 5 mps 746 mmHg 83%
    12:00 +19°C° 0 mm 5 mps 746 mmHg 80%
    13:00 +20°C° 0 mm 5 mps 746 mmHg 77%
    14:00 +21°C° 0 mm 5 mps 746 mmHg 75%
    15:00 +20°C° 0 mm 5 mps 746 mmHg 76%
    16:00 +20°C° 0 mm 4 mps 746 mmHg 77%
    17:00 +20°C° 0 mm 4 mps 746 mmHg 78%
    18:00 +18°C° 0 mm 4 mps 746 mmHg 82%
    19:00 +17°C° 0 mm 3 mps 747 mmHg 86%
    20:00 +16°C° 0 mm 3 mps 747 mmHg 89%
    21:00 +14°C° 0 mm 3 mps 747 mmHg 90%
    22:00 +14°C° 0 mm 3 mps 747 mmHg 91%
    23:00 +13°C° 0 mm 3 mps 747 mmHg 92%

    23 August, Friday

    Time Temperature Precipitation Wind Pressure Humidity
    00:00 +14°C° 0 mm 2 mps 747 mmHg 93%
    01:00 +13°C° 0 mm 2 mps 747 mmHg 94%
    02:00 +13°C° 0 mm 2 mps 747 mmHg 95%
    03:00 +13°C° 0 mm 2 mps 747 mmHg 95%
    04:00 +13°C° 0 mm 2 mps 747 mmHg 96%
    05:00 +12°C° 0 mm 2 mps 747 mmHg 96%
    06:00 +14°C° 0 mm 2 mps 747 mmHg 92%
    07:00 +15°C° 0 mm 2 mps 747 mmHg 89%
    08:00 +16°C° 0 mm 3 mps 747 mmHg 85%
    09:00 +17°C° 0 mm 3 mps 747 mmHg 81%
    10:00 +18°C° 0 mm 3 mps 747 mmHg 76%
    11:00 +20°C° 0 mm 3 mps 747 mmHg 71%
    12:00 +20°C° 0.1 mm 3 mps 747 mmHg 68%
    13:00 +20°C° 0.1 mm 2 mps 747 mmHg 66%
    14:00 +21°C° 0.1 mm 2 mps 747 mmHg 63%
    15:00 +20°C° 0.6 mm 2 mps 747 mmHg 69%
    16:00 +19°C° 0.6 mm 3 mps 747 mmHg 74%
    17:00 +19°C° 0.6 mm 3 mps 747 mmHg 79%
    18:00 +17°C° 0.2 mm 3 mps 747 mmHg 82%
    19:00 +16°C° 0.2 mm 3 mps 747 mmHg 86%
    20:00 +13°C° 0.2 mm 3 mps 747 mmHg 89%
    21:00 +13°C° 0 mm 3 mps 747 mmHg 91%
    22:00 +12°C° 0 mm 3 mps 748 mmHg 92%
    23:00 +11°C° 0 mm 3 mps 748 mmHg 94%
    Show more